www.pogodaiklimat.ru

Погода и климат >> Архив погоды >> Австралия >> Новый Южный Уэльс >> Бурк


ПОГОДА в Бурке

  • Прогноз погоды в Бурке
  • Монитор погоды в Бурке

АРХИВ ПОГОДЫ в Бурке

Время (UTC), дата Ветер
(напр.,м/с)
 
Видим.   Явления Облачность Т
(С)
Тd
(С)
f
(%)
Тe
(С)
Тes
(С)
Комфортность P
(гПа)
Po
(гПа)
Тmin
(С)
Tmax
(С)
R
(мм)
R24
(мм)
S
(см)
01 9.09 ЮЗ 7 н/о н/о +14.9 -1.6 32 +13 +13 1023.1 1010.3
02 9.09 ЮЗ 8 н/о н/о +16.4 -3.7 25 +15 +15 1022.5 1009.7 +7.2
03 9.09 ЮЗ 8 н/о н/о +17.4 -4.5 22 +16 +16 1021.3 1008.5
04 9.09 ЮЗ 8 н/о н/о +18.1 -3.9 22 +17 +17 1020.8 1008.0
05 9.09 ЮЗ 8 н/о н/о +18.0 -5.3 20 +17 +17 1020.5 1007.7
06 9.09 ЮЗ 9 н/о н/о +18.2 -5.8 19 +17 +17 1020.6 1007.8
07 9.09 ЮЗ 8 н/о н/о +17.7 -6.2 19 +17 +17 1021.0 1008.2
08 9.09 ЮЗ 7 н/о н/о +16.2 -5.5 22 +15 +15 1021.8 1009.0
09 9.09 Ю 5 н/о н/о +14.8 -5.5 24 +14 +14 1023.0 1010.2
10 9.09 Ю 6 н/о н/о +14.1 -5.1 26 +13 +13 1023.8 1011.0
11 9.09 Ю 5 н/о н/о +13.3 -4.3 29 +12 +12 1024.4 1011.6
12 9.09 ЮЗ 5 н/о н/о +12.4 -4.2 31 +11 +11 1025.0 1012.2
13 9.09 ЮЗ 5 н/о н/о +11.5 -4.2 33 +10 +10 1025.3 1012.5
14 9.09 Ю 3 н/о н/о +10.2 -3.8 37 +9 +9 1025.5 1012.7 +19.2
15 9.09 ЮЗ 3 н/о н/о +7.8 -4.3 42 +6 +6 1025.2 1012.4
16 9.09 ЮЗ 3 н/о н/о +7.3 -4.4 43 +5 +5 1025.0 1012.2
17 9.09 ЮЗ 3 н/о н/о +6.7 -3.5 48 +5 +5 1024.9 1012.1
18 9.09 ЮЗ 3 н/о н/о +6.5 -3.2 50 +4 +4 1024.9 1012.1
19 9.09 ЮЗ 3 н/о н/о +5.5 -3.1 54 +3 +3 1025.2 1012.4
20 9.09 ЮЗ 3 н/о н/о +4.9 -3.4 55 +2 +2 1025.7 1012.9
21 9.09 ЮЗ 3 н/о н/о +4.9 -3.6 54 +2 +2 1026.7 1013.8
22 9.09 Ю 5 н/о н/о +9.9 -1.5 45 +7 +7 1027.4 1014.5
23 9.09 Ю 6 н/о н/о +12.0 -1.5 39 +10 +10 1027.9 1015.0
00 10.09 Ю 6 н/о н/о +13.8 -2.6 32 +12 +12 1027.8 1014.9
01 10.09 Ю 5 н/о н/о +15.5 -3.4 27 +14 +14 1027.4 1014.5
02 10.09 Ю 4 н/о н/о +17.0 -3.7 24 +17 +17 1026.6 1013.7 +3.4
03 10.09 ЮЗ 5 н/о н/о +18.7 -4.7 20 +18 +18 1025.6 1012.8
04 10.09 Ю 4 н/о н/о +19.3 -5.6 18 +19 +19 1024.9 1012.1
05 10.09 ЮЗ 5 н/о н/о +20.4 -7.1 15 +20 +20 1024.5 1011.7
06 10.09 Ю 4 н/о н/о +20.9 -7.6 14 +20 +20 1024.6 1011.8
07 10.09 Ю 4 н/о н/о +20.8 -7.6 14 +20 +20 1025.0 1012.2
08 10.09 Ю 3 н/о н/о +18.9 -8.3 15 +19 +19 1025.6 1012.8
09 10.09 Ю 2 н/о н/о +15.3 -8.2 19 +15 +15 1026.4 1013.5
10 10.09 ЮЗ 2 н/о н/о +12.0 -9.0 22 +12 +12 1027.0 1014.1
11 10.09 Ю 3 н/о н/о +11.3 -9.0 23 +10 +10 1027.6 1014.7
12 10.09 Ю 4 н/о н/о +14.6 -5.7 24 +14 +14 1027.9 1015.0
13 10.09 Ю 5 н/о н/о +13.6 -5.5 26 +12 +12 1028.1 1015.2
14 10.09 Ю 3 н/о н/о +11.6 -5.4 30 +10 +10 1027.9 1015.0 +21.5
15 10.09 Ю 4 н/о н/о +11.5 -5.0 31 +10 +10 1028.0 1015.1
16 10.09 Ю 4 н/о н/о +10.1 -5.8 32 +8 +8 1027.8 1014.9
17 10.09 Ю 3 н/о н/о +9.1 -5.9 34 +7 +7 1027.8 1014.9
18 10.09 Ю 3 н/о н/о +7.7 -5.4 39 +6 +6 1027.9 1015.0
19 10.09 Ю 3 н/о н/о +7.3 -5.1 41 +5 +5 1028.4 1015.5
20 10.09 Ю 3 н/о н/о +7.1 -5.2 41 +5 +5 1029.0 1016.1
21 10.09 Ю 3 н/о н/о +7.8 -4.9 40 +6 +6 1029.8 1016.9
22 10.09 ЮВ 3 н/о н/о +10.1 -5.4 33 +9 +9 1030.7 1017.8
23 10.09 ЮВ 3 н/о н/о +15.3 -3.1 28 +15 +15 1030.9 1018.0
00 11.09 В 5 н/о н/о +18.7 -2.8 23 +18 +18 1030.8 1017.9
01 11.09 СВ 4 н/о н/о +20.0 -3.0 21 +20 +20 1030.4 1017.5
02 11.09 ЮВ 3 н/о н/о +21.4 -5.4 16 +20 +20 1029.8 1016.9 +6.2
03 11.09 З 2 н/о н/о +22.0 -5.8 15 +21 +21 комфорт 1028.7 1015.8
04 11.09 Ю 3 н/о н/о +23.1 -5.8 14 +21 +21 комфорт 1027.8 1014.9
05 11.09 Ю 3 н/о н/о +23.4 -6.5 13 +21 +21 комфорт 1027.1 1014.2
06 11.09 ЮВ 3 н/о н/о +23.8 -6.2 13 +22 +22 комфорт 1026.8 1013.9
07 11.09 ЮЗ 2 н/о н/о +23.5 -6.5 13 +22 +22 комфорт 1026.7 1013.8
08 11.09 Ю 2 н/о н/о +21.3 -7.2 14 +20 +20 1027.0 1014.1
09 11.09 ЮЗ 2 н/о н/о +16.4 -10.3 15 +17 +17 1027.5 1014.6
10 11.09 штиль 0 н/о н/о +13.5 -7.8 22 +14 +14 1027.8 1014.9
11 11.09 штиль 0 н/о н/о +12.0 -9.0 22 +12 +12 1027.8 1014.9
12 11.09 ЮЗ 1 н/о н/о +10.1 -10.1 23 +11 +11 1027.8 1014.9
13 11.09 штиль 0 н/о н/о +8.7 -10.7 24 +9 +9 1027.9 1015.0
14 11.09 СВ 2 н/о н/о +7.4 -9.9 28 +6 +6 1027.6 1014.7 +24.4
15 11.09 штиль 0 н/о н/о +7.2 -10.1 28 +7 +7 1027.4 1014.5
16 11.09 С 2 н/о н/о +5.8 -11.3 28 +4 +4 1026.8 1013.9
17 11.09 С 2 н/о н/о +5.5 -11.5 28 +4 +4 1026.4 1013.5
18 11.09 штиль 0 н/о н/о +4.5 -12.4 28 +5 +5 1026.2 1013.3
19 11.09 штиль 0 н/о н/о +4.3 -11.3 31 +4 +4 1026.6 1013.7
20 11.09 штиль 0 н/о н/о +3.4 -12.5 30 +3 +3 1026.9 1014.0
21 11.09 СЗ 2 н/о н/о +6.3 -9.6 31 +5 +5 1027.3 1014.4
22 11.09 С 2 н/о н/о +13.6 -6.6 24 +14 +14 1027.3 1014.4
23 11.09 З 1 н/о н/о +18.8 -6.0 18 +20 +20 1027.9 1015.0
00 12.09 СЗ 3 н/о н/о +22.3 -6.5 14 +21 +21 комфорт 1027.5 1014.6
01 12.09 СЗ 4 н/о н/о +24.1 -6.0 13 +22 +22 комфорт 1026.5 1013.6
02 12.09 СЗ 5 н/о н/о +24.8 -6.5 12 +22 +22 комфорт 1025.4 1012.6 +3.3
03 12.09 СЗ 5 н/о н/о +25.5 -7.1 11 +23 +23 комфорт 1024.3 1011.5
04 12.09 СЗ 5 н/о н/о +26.3 -7.7 10 +23 +23 комфорт 1023.0 1010.2
05 12.09 З 5 н/о н/о +26.8 -7.3 10 +24 +24 комфорт 1022.3 1009.5
06 12.09 З 5 н/о н/о +26.9 -8.6 9 +24 +24 комфорт 1021.8 1009.0
07 12.09 З 5 н/о н/о +26.5 -8.9 9 +23 +23 комфорт 1021.5 1008.7
08 12.09 З 3 н/о н/о +24.5 -9.1 10 +22 +22 комфорт 1021.9 1009.1
09 12.09 З 2 н/о н/о +19.9 -10.3 12 +20 +20 1022.3 1009.5
10 12.09 З 2 н/о н/о +15.2 -12.1 14 +16 +16 1022.7 1009.9
11 12.09 З 2 н/о н/о +12.9 -12.3 16 +13 +13 1022.7 1009.9
12 12.09 З 2 н/о н/о +11.6 -11.9 18 +12 +12 1022.9 1010.1
13 12.09 З 2 н/о н/о +10.6 -12.0 19 +10 +10 1022.9 1010.1
14 12.09 СЗ 2 н/о н/о +10.1 -12.4 19 +9 +9 1022.4 1009.6 +27.8
15 12.09 СЗ 2 н/о н/о +8.7 -13.0 20 +8 +8 1022.4 1009.6
16 12.09 СЗ 2 н/о н/о +10.0 -11.3 21 +9 +9 1021.9 1009.1
17 12.09 З 2 н/о н/о +9.9 -11.4 21 +9 +9 1021.7 1008.9
18 12.09 ЮЗ 3 н/о н/о +11.2 -10.9 20 +10 +10 1021.6 1008.8
19 12.09 ЮЗ 3 н/о н/о +9.9 -10.8 22 +9 +9 1022.1 1009.3
20 12.09 Ю 4 н/о н/о +12.1 -9.5 21 +11 +11 1022.7 1009.9
21 12.09 ЮВ 3 н/о н/о +11.8 -9.8 21 +11 +11 1023.5 1010.7
22 12.09 ЮВ 4 н/о н/о +14.5 -7.5 21 +14 +14 1024.6 1011.8
23 12.09 Ю 5 н/о н/о +18.9 -1.5 25 +19 +19 1025.4 1012.6
00 13.09 ЮВ 5 н/о н/о +21.9 +1.0 25 +21 +21 комфорт 1025.0 1012.2
01 13.09 ЮВ 4 н/о н/о +23.9 -1.1 19 +23 +23 комфорт 1024.2 1011.4
02 13.09 ЮЗ 4 н/о н/о +25.0 -3.4 15 +23 +23 комфорт 1023.7 1010.9 +8.5
03 13.09 ЮВ 2 н/о н/о +25.5 -4.9 13 +23 +23 комфорт 1022.8 1010.0
04 13.09 Ю 3 н/о н/о +26.9 -4.9 12 +24 +24 комфорт 1021.9 1009.1
05 13.09 Ю 3 н/о н/о +27.4 -4.5 12 +24 +24 комфорт 1021.4 1008.6
06 13.09 ЮЗ 3 н/о н/о +27.1 -4.7 12 +24 +24 комфорт 1021.2 1008.4
07 13.09 ЮЗ 3 н/о н/о +27.1 -5.9 11 +24 +24 комфорт 1021.2 1008.4
08 13.09 ЮЗ 1 н/о н/о +24.8 -6.5 12 +22 +22 комфорт 1021.5 1008.7
09 13.09 З 2 н/о н/о +19.6 -6.9 16 +20 +20 1022.0 1009.2
10 13.09 ЮЗ 2 н/о н/о +17.1 -8.1 17 +17 +17 1022.8 1010.0
11 13.09 ЮЗ 3 н/о н/о +16.1 -6.2 21 +16 +16 1023.2 1010.4
12 13.09 З 3 н/о н/о +16.1 -7.5 19 +16 +16 1023.2 1010.4
13 13.09 ЮЗ 4 н/о н/о +14.8 -6.7 22 +14 +14 1023.4 1010.6
14 13.09 ЮЗ 3 н/о н/о +14.8 -5.5 24 +14 +14 1023.4 1010.6 +28.0
15 13.09 ЮЗ 4 н/о н/о +13.1 -5.9 26 +12 +12 1023.4 1010.6
16 13.09 Ю 4 н/о н/о +15.3 -4.6 25 +15 +15 1023.3 1010.5
17 13.09 ЮВ 2 н/о н/о +10.8 -6.5 29 +11 +11 1023.2 1010.4
18 13.09 штиль 0 н/о н/о +7.7 -8.3 31 +8 +8 1023.1 1010.3
19 13.09 З 2 н/о н/о +7.0 -6.7 37 +6 +6 1023.5 1010.7
20 13.09 ЮЗ 2 н/о н/о +6.1 -8.6 34 +5 +5 1023.9 1011.1
21 13.09 Ю 2 н/о н/о +8.2 -7.1 33 +8 +8 1024.8 1012.0
22 13.09 ЮВ 4 н/о н/о +15.0 -2.9 29 +14 +14 1025.6 1012.8
23 13.09 ЮВ 5 н/о н/о +19.7 -1.4 24 +19 +19 1025.8 1013.0
00 14.09 ЮВ 5 н/о н/о +22.0 -2.0 20 +21 +21 комфорт 1025.6 1012.8
01 14.09 Ю 4 н/о н/о +24.0 -4.2 15 +22 +22 комфорт 1025.1 1012.3
02 14.09 Ю 3 н/о н/о +25.7 -5.8 12 +23 +23 комфорт 1024.3 1011.5 +5.6
03 14.09 Ю 4 н/о н/о +26.1 -3.5 14 +24 +24 комфорт 1023.6 1010.8
04 14.09 Ю 5 н/о н/о +27.3 -3.5 13 +25 +25 комфорт 1022.7 1009.9
05 14.09 ЮВ 5 н/о н/о +27.9 -3.0 13 +25 +25 комфорт 1022.1 1009.3
06 14.09 ЮЗ 4 н/о н/о +28.6 -2.5 13 +26 +26 жарко 1021.7 1008.9
07 14.09 Ю 4 н/о н/о +28.0 -5.2 11 +25 +25 комфорт 1021.7 1008.9
08 14.09 ЮВ 2 н/о н/о +25.6 -4.8 13 +23 +23 комфорт 1022.0 1009.2
09 14.09 З 2 н/о н/о +19.8 -6.7 16 +20 +20 1022.6 1009.8
10 14.09 З 2 н/о н/о +16.8 -6.3 20 +17 +17 1023.2 1010.4
11 14.09 ЮЗ 2 н/о н/о +16.1 -5.6 22 +16 +16 1023.3 1010.5
12 14.09 Ю 3 н/о н/о +15.6 -7.2 20 +15 +15 1023.4 1010.6
13 14.09 ЮВ 4 н/о н/о +17.0 -6.8 19 +17 +17 1022.8 1010.0
14 14.09 Ю 3 н/о н/о +15.8 -9.2 17 +16 +16 1022.9 1010.1 +28.9
15 14.09 ЮВ 3 н/о н/о +12.9 -9.5 20 +12 +12 1022.9 1010.1
16 14.09 ЮВ 3 н/о н/о +11.5 -8.9 23 +11 +11 1022.7 1009.9
17 14.09 В 2 н/о н/о +10.7 -8.0 26 +10 +10 1022.2 1009.4
18 14.09 Ю 3 н/о н/о +9.0 -9.4 26 +8 +8 1022.4 1009.6
19 14.09 штиль 0 н/о н/о +6.3 -10.4 29 +6 +6 1023.0 1010.2
20 14.09 штиль 0 н/о н/о +5.1 -11.4 29 +5 +5 1023.5 1010.7
21 14.09 штиль 0 н/о н/о +8.7 -8.3 29 +9 +9 1024.0 1011.2
22 14.09 штиль 0 н/о н/о +15.9 -6.4 21 +16 +16 1024.5 1011.7
23 14.09 СВ 4 н/о н/о +20.0 -6.5 16 +20 +20 1024.5 1011.7
00 15.09 СВ 4 н/о н/о +22.0 -7.6 13 +20 +20 1024.4 1011.6
01 15.09 СВ 4 н/о н/о +24.8 -6.5 12 +22 +22 комфорт 1023.9 1011.1
02 15.09 СВ 4 н/о н/о +26.5 -6.3 11 +24 +24 комфорт 1022.9 1010.1 +4.9
03 15.09 СВ 3 н/о н/о +27.9 -7.9 9 +24 +24 комфорт 1021.8 1009.0
04 15.09 СВ 3 н/о н/о +28.4 -10.7 7 +25 +25 комфорт 1020.6 1007.8
05 15.09 С 3 н/о н/о +29.0 -12.2 6 +25 +25 комфорт 1019.6 1006.8
06 15.09 С 2 н/о н/о +29.4 -11.9 6 +25 +25 комфорт 1019.4 1006.6
07 15.09 ЮЗ 1 н/о н/о +29.6 -11.7 6 +25 +25 комфорт 1019.5 1006.7
08 15.09 С 2 н/о н/о +26.3 -14.1 6 +23 +23 комфорт 1019.8 1007.0
09 15.09 штиль 0 н/о н/о +19.2 -14.4 9 +19 +19 1019.9 1007.1
10 15.09 СВ 1 н/о н/о +16.6 -13.9 11 +18 +18 1020.3 1007.5
11 15.09 штиль 0 н/о н/о +13.8 -10.8 17 +14 +14 1020.4 1007.6
12 15.09 СВ 2 н/о н/о +12.2 -13.6 15 +12 +12 1020.3 1007.5
13 15.09 С 3 н/о н/о +11.7 -14.9 14 +11 +11 1020.0 1007.2
14 15.09 СВ 3 н/о н/о +11.8 -15.7 13 +11 +11 1019.7 1006.9 +29.7
15 15.09 СВ 3 н/о н/о +11.4 -16.0 13 +11 +11 1019.3 1006.5
17 15.09 В 3 н/о н/о +11.0 -14.6 15 +10 +10 1017.9 1005.2
18 15.09 СВ 2 н/о н/о +9.2 -10.8 23 +9 +9 1017.7 1005.0
19 15.09 СВ 3 н/о н/о +9.1 -13.9 18 +8 +8 1017.8 1005.1
20 15.09 СВ 3 н/о н/о +8.2 -14.7 18 +7 +7 1018.3 1005.5
21 15.09 СВ 3 н/о н/о +11.9 -14.7 14 +11 +11 1018.4 1005.6
22 15.09 С 3 н/о н/о +19.0 -13.3 10 +19 +19 1018.5 1005.7
23 15.09 С 6 н/о н/о +24.2 -13.7 7 +21 +21 комфорт 1018.4 1005.6

 

Местоположение метеостанции Бурк (Новый Южный Уэльс, Австралия): широта -30.03 долгота 145.95 высота над уровнем моря 108 м.

В архиве по умолчанию представлена погода в Бурке за последнюю неделю. Архивные данные за месяц целиком и за предыдущие месяцы, начиная с января 2011 года, Вы можете получить, выбрав интересующий диапазон дат из раскрывающегося списка и нажав кнопку "Ввод!".


*Определитесь, кто Вы:
робот инопланетянин человек

Внимание! Время в таблицах - всемирное. Для получения местного времени необходимо прибавить поправку, которая равна 10 ч.

Смотрите также архив погоды в соседних городах и на ближайших метеорологических станциях:

Погода в Кобаре (Новый Южный Уэльс, Австралия) (162 км)
Погода в Кобар аэропорту (Новый Южный Уэльс, Австралия) (167 км)
Погода в Уолджетте (Новый Южный Уэльс, Австралия) (209 км)
Погода в Кунамбле (Новый Южный Уэльс, Австралия) (256 км)
Погода в Транги (Новый Южный Уэльс, Австралия) (289 км)
Погода в Уафт Клифс (Новый Южный Уэльс, Австралия) (291 км)
Погода в Уилкании (Новый Южный Уэльс, Австралия) (296 км)
Погода в Таргоминде (Квинсленд, Австралия) (309 км)
Погода в Сейнт Джордж аэропорту (Квинсленд, Австралия) (339 км)
Погода в Даббо (Новый Южный Уэльс, Австралия) (347 км)

Пояснения к столбцам:

Ветер - указаны скорость ветра в м/с - средняя за 10 мин, порывы в срок и между сроками (в фигурных скобках) и направление, откуда дует ветер: С - северный, СВ - северо-восточный, В - восточный, ЮВ - юго-восточный, Ю - южный, ЮЗ - юго-западный, З - западный, СЗ - северо-западный.
Видимость - горизонтальная дальность видимости в метрах или километрах. При видимости от 1 до 10 км при отсутствии осадков обычно наблюдается дымка, при ухудшении видимости до 1 км и менее - туман. В сухую погоду видимость может ухудшаться дымом, пылью или мглою.
Явления - указаны атмосферные явления, наблюдавшиеся в срок или в последний час перед сроком; фигурными скобками обозначены явления, наблюдавшиеся между сроками (за 1-3 часа до срока); квадратными скобками обозначены град или гололедные отложения с указанием их диаметра в мм.
Облачность - указаны через наклонную черту общая и нижняя облачность в баллах и высота нижней границы облаков в метрах; квадратными скобками обозначены формы облаков: Ci - перистые, Cs - перисто-слоистые, Cc - перисто-кучевые, Ac - высококучевые, As - высокослоистые, Sc - слоисто-кучевые, Ns - слоисто-дождевые, Cu - кучевые, Cb - кучево-дождевые. Подробнее классификацию облаков см. в Атласе облаков (PDF).
T - Температура воздуха - температура, измеренная на высоте 2 м над землей.
Td - Температура точки росы - температура, при понижении до которой содержащийся в воздухе водяной пар достигнет насыщения.
f - Относительная влажность воздуха - влажноcть воздуха, измеренная на высоте 2 м над землей.
Te - Эффективная температура - температура, которую ощущает одетый по сезону человек в тени. Характеристика душности погоды. При расчете учитывается влияние влажности воздуха и скорости ветра на теплоощущения человека.
Tes - Эффективная температура на солнце - температура, которую ощущает человек, с поправкой на солнечный нагрев. Характеристика знойности погоды. Зависит от высоты солнца над горизонтом, облачности и скорости ветра. Ночью, в пасмурную погоду, а также при ветре 12 м/с и более поправка равна нулю.
P - Атмосферное давление - приведенное к уровню моря атмосферное давление.
Po - Атмосферное давление - измеренное на уровне метеостанции атмосферное давление.
Tmin - Минимальная температура - минимум температуры воздуха на высоте 2 м над землей.
Tmax - Максимальная температура - максимум температуры воздуха на высоте 2 м над землей.
R - Количество осадков - Количество выпавших осадков за период времени, мм. При наведении курсора мыши на число - период времени, за который выпало указанное количество осадков.
R24 - Количество осадков - Количество выпавших осадков за 24 часа, мм.
S - Снежный покров - Высота снежного покрова, см. При наведении курсора мыши на число - состояние снежного покрова и степень покрытия местности в баллах.